Total_Precipitation_Accumulation
0.04 0.04 0.04 0.02 0.01 0.00 0.02 0.06 0.13 0.06 0.15 0.29 0.35 0.11 0.01 0.01 0.00 0.00 0.00 0.00 0.00 0.00 0.00 0.00 0.00 0.00 0.00 0.00 0.00 0.00 0.00 0.00 0.00 0.00 0.00 0.00 0.00 0.00 0.00 0.00 0.00 0.00 0.00 0.00
0.02 0.02 0.03 0.04 0.05 0.02 0.01 0.16 0.25 0.13 0.31 0.42 0.29 0.09 0.02 0.02 0.02 0.01 0.00 0.00 0.00 0.00 0.00 0.00 0.00 0.00 0.00 0.00 0.00 0.00 0.00 0.00 0.00 0.00 0.00 0.00 0.00 0.00 0.00 0.00 0.00 0.00 0.00 0.00
0.03 0.01 0.01 0.06 0.09 0.09 0.01 0.10 0.29 0.27 0.35 0.40 0.30 0.19 0.14 0.15 0.13 0.08 0.11 0.08 0.02 0.01 0.00 0.00 0.00 0.00 0.00 0.00 0.00 0.00 0.00 0.00 0.00 0.00 0.00 0.00 0.00 0.00 0.00 0.00 0.01 0.00 0.00 0.00
0.07 0.03 0.01 0.05 0.09 0.15 0.06 0.04 0.13 0.20 0.28 0.35 0.39 0.34 0.31 0.23 0.20 0.22 0.22 0.23 0.20 0.16 0.12 0.09 0.09 0.07 0.05 0.02 0.01 0.01 0.05 0.06 0.00 0.00 0.00 0.00 0.00 0.00 0.00 0.00 0.00 0.01 0.00 0.00
0.05 0.03 0.01 0.02 0.04 0.10 0.18 0.09 0.02 0.08 0.15 0.20 0.30 0.40 0.35 0.27 0.23 0.26 0.25 0.33 0.36 0.40 0.39 0.34 0.31 0.29 0.30 0.24 0.14 0.11 0.17 0.21 0.09 0.05 0.00 0.01 0.02 0.00 0.00 0.00 0.00 0.01 0.00 0.00
0.06 0.07 0.03 0.00 0.02 0.05 0.15 0.11 0.05 0.06 0.06 0.06 0.13 0.20 0.19 0.20 0.23 0.22 0.19 0.18 0.24 0.22 0.18 0.21 0.24 0.24 0.21 0.24 0.20 0.19 0.23 0.24 0.20 0.10 0.01 0.04 0.05 0.00 0.00 0.00 0.00 0.00 0.00 0.00
0.07 0.11 0.11 0.05 0.02 0.02 0.07 0.10 0.13 0.16 0.09 0.02 0.02 0.03 0.07 0.15 0.19 0.24 0.10 0.07 0.11 0.12 0.07 0.09 0.14 0.15 0.13 0.09 0.06 0.08 0.15 0.13 0.18 0.14 0.12 0.18 0.01 0.00 0.00 0.00 0.00 0.00 0.00 0.00
0.04 0.07 0.10 0.11 0.08 0.07 0.08 0.07 0.16 0.25 0.18 0.03 0.01 0.01 0.02 0.02 0.03 0.10 0.12 0.05 0.06 0.12 0.24 0.24 0.17 0.09 0.09 0.06 0.02 0.01 0.04 0.14 0.26 0.26 0.18 0.09 0.01 0.00 0.00 0.00 0.00 0.00 0.00 0.00
0.06 0.08 0.10 0.10 0.10 0.10 0.13 0.10 0.13 0.21 0.20 0.05 0.00 0.00 0.01 0.01 0.01 0.02 0.03 0.01 0.01 0.06 0.23 0.28 0.23 0.11 0.03 0.01 0.01 0.00 0.01 0.11 0.31 0.35 0.26 0.11 0.01 0.00 0.00 0.00 0.00 0.00 0.00 0.00
0.08 0.09 0.11 0.16 0.16 0.15 0.18 0.12 0.09 0.21 0.25 0.06 0.01 0.02 0.01 0.01 0.01 0.03 0.01 0.01 0.02 0.07 0.22 0.31 0.20 0.13 0.05 0.05 0.00 0.00 0.00 0.04 0.17 0.17 0.19 0.13 0.01 0.00 0.00 0.00 0.00 0.00 0.00 0.00
0.10 0.11 0.13 0.13 0.12 0.17 0.36 0.42 0.15 0.18 0.23 0.06 0.00 0.00 0.00 0.00 0.01 0.02 0.04 0.07 0.07 0.11 0.21 0.20 0.12 0.16 0.11 0.08 0.01 0.00 0.00 0.01 0.02 0.06 0.14 0.09 0.00 0.00 0.00 0.00 0.00 0.00 0.00 0.00
0.07 0.07 0.07 0.12 0.16 0.13 0.16 0.25 0.20 0.24 0.14 0.01 0.00 0.00 0.00 0.00 0.00 0.02 0.03 0.06 0.05 0.10 0.19 0.18 0.20 0.17 0.14 0.10 0.09 0.00 0.01 0.02 0.01 0.01 0.00 0.00 0.00 0.00 0.00 0.00 0.00 0.00 0.00 0.00
0.08 0.13 0.11 0.08 0.12 0.22 0.22 0.16 0.14 0.16 0.08 0.01 0.00 0.00 0.00 0.00 0.00 0.01 0.08 0.03 0.01 0.03 0.04 0.14 0.22 0.27 0.21 0.20 0.17 0.10 0.04 0.01 0.03 0.06 0.02 0.00 0.00 0.00 0.00 0.00 0.00 0.00 0.00 0.00
0.06 0.06 0.11 0.17 0.19 0.17 0.19 0.21 0.18 0.08 0.03 0.01 0.00 0.00 0.00 0.00 0.00 0.00 0.00 0.00 0.03 0.04 0.08 0.20 0.25 0.17 0.08 0.06 0.04 0.06 0.05 0.01 0.02 0.04 0.01 0.00 0.00 0.00 0.00 0.00 0.00 0.00 0.00 0.00
0.10 0.07 0.05 0.08 0.17 0.27 0.23 0.14 0.13 0.06 0.01 0.00 0.00 0.00 0.00 0.00 0.00 0.00 0.00 0.00 0.01 0.03 0.10 0.18 0.17 0.07 0.07 0.07 0.08 0.04 0.00 0.00 0.00 0.01 0.00 0.00 0.00 0.00 0.00 0.00 0.00 0.00 0.00 0.00
0.04 0.14 0.11 0.11 0.16 0.22 0.24 0.16 0.05 0.03 0.05 0.03 0.00 0.00 0.00 0.00 0.00 0.00 0.00 0.00 0.02 0.14 0.25 0.23 0.15 0.04 0.08 0.19 0.13 0.01 0.00 0.00 0.00 0.00 0.00 0.00 0.01 0.00 0.00 0.00 0.00 0.00 0.00 0.00
0.02 0.07 0.13 0.13 0.18 0.27 0.12 0.03 0.00 0.01 0.06 0.10 0.08 0.01 0.00 0.00 0.00 0.00 0.00 0.00 0.04 0.10 0.17 0.16 0.09 0.10 0.23 0.37 0.20 0.01 0.00 0.00 0.00 0.00 0.01 0.01 0.00 0.00 0.00 0.00 0.00 0.00 0.00 0.00
0.03 0.03 0.11 0.13 0.16 0.20 0.20 0.04 0.02 0.00 0.01 0.01 0.03 0.02 0.00 0.00 0.00 0.01 0.01 0.02 0.04 0.08 0.07 0.04 0.01 0.02 0.08 0.12 0.01 0.00 0.00 0.00 0.00 0.00 0.01 0.02 0.01 0.00 0.00 0.00 0.00 0.00 0.00 0.00
0.02 0.09 0.16 0.16 0.14 0.15 0.03 0.03 0.10 0.07 0.03 0.03 0.04 0.04 0.03 0.00 0.01 0.03 0.05 0.07 0.09 0.04 0.03 0.01 0.02 0.03 0.02 0.00 0.00 0.00 0.00 0.00 0.00 0.00 0.00 0.00 0.00 0.00 0.00 0.00 0.00 0.00 0.00 0.00
0.12 0.17 0.15 0.11 0.02 0.02 0.02 0.08 0.13 0.16 0.11 0.05 0.01 0.00 0.01 0.00 0.00 0.01 0.03 0.04 0.05 0.06 0.02 0.02 0.04 0.01 0.00 0.00 0.00 0.00 0.00 0.00 0.00 0.00 0.00 0.00 0.00 0.00 0.00 0.00 0.00 0.00 0.00 0.00
0.29 0.26 0.11 0.07 0.10 0.08 0.16 0.20 0.15 0.10 0.09 0.04 0.00 0.00 0.00 0.00 0.00 0.01 0.00 0.02 0.01 0.03 0.00 0.02 0.01 0.00 0.00 0.00 0.00 0.00 0.00 0.00 0.00 0.00 0.00 0.00 0.00 0.00 0.00 0.00 0.00 0.00 0.00 0.00
0.15 0.07 0.06 0.12 0.14 0.14 0.15 0.13 0.07 0.03 0.01 0.00 0.00 0.00 0.00 0.01 0.00 0.02 0.04 0.03 0.03 0.03 0.00 0.01 0.00 0.00 0.00 0.00 0.00 0.00 0.00 0.00 0.00 0.00 0.00 0.00 0.00 0.00 0.00 0.00 0.00 0.00 0.00 0.00
0.03 0.06 0.09 0.11 0.11 0.07 0.05 0.02 0.00 0.00 0.00 0.00 0.00 0.01 0.01 0.01 0.02 0.08 0.07 0.06 0.04 0.01 0.01 0.01 0.00 0.00 0.00 0.00 0.00 0.00 0.00 0.00 0.00 0.00 0.00 0.00 0.00 0.00 0.00 0.00 0.00 0.00 0.00 0.00
0.09 0.05 0.06 0.02 0.02 0.01 0.01 0.00 0.00 0.00 0.00 0.00 0.01 0.02 0.04 0.04 0.09 0.14 0.10 0.06 0.02 0.02 0.01 0.00 0.00 0.00 0.00 0.00 0.00 0.00 0.00 0.00 0.00 0.00 0.00 0.00 0.00 0.00 0.00 0.00 0.00 0.00 0.00 0.00
0.03 0.01 0.02 0.02 0.01 0.00 0.00 0.00 0.01 0.01 0.02 0.04 0.05 0.06 0.07 0.07 0.10 0.06 0.06 0.05 0.02 0.01 0.00 0.00 0.00 0.00 0.00 0.00 0.00 0.00 0.00 0.00 0.00 0.00 0.00 0.00 0.00 0.00 0.00 0.00 0.00 0.00 0.00 0.00
0.04 0.03 0.02 0.01 0.01 0.01 0.01 0.02 0.04 0.04 0.06 0.08 0.08 0.07 0.07 0.06 0.05 0.05 0.03 0.02 0.01 0.00 0.00 0.00 0.00 0.00 0.00 0.00 0.00 0.00 0.00 0.00 0.00 0.00 0.00 0.00 0.00 0.00 0.00 0.00 0.00 0.00 0.00 0.00
0.02 0.01 0.01 0.01 0.02 0.03 0.04 0.05 0.05 0.05 0.08 0.08 0.05 0.06 0.04 0.03 0.03 0.02 0.01 0.01 0.00 0.00 0.00 0.00 0.00 0.00 0.00 0.00 0.00 0.00 0.00 0.00 0.00 0.00 0.00 0.00 0.00 0.00 0.00 0.00 0.00 0.00 0.00 0.00